View from above orbital plane
|
View from above satellite
|
Ground track
|
The orbit data is extracted from the following two-line orbital elements,
1 15495U 85009B 21015.47605403 .00000078 00000-0 64540-5 0 9993
2 15495 82.5229 41.8474 0019468 337.7941 22.2429 14.83892699922850
Epoch (UTC): | 15 January 2021 11:25:31 |
Eccentricity: | 0.0019468 |
inclination: | 82.5229° |
perigee height: | 603 km |
apogee height: | 630 km |
right ascension of ascending node: | 41.8474° |
argument of perigee: | 337.7941° |
revolutions per day: | 14.83892699 |
mean anomaly at epoch: | 22.2429° |
orbit number at epoch: | 92285 |
The dashed part of the orbit path shows where the satellite is in the earth's shadow,
|
|